Date String (YYYY-MM-DD hh:mm:ss) UTC,Instrument flags,Ambient pressure (hPa),Sample flow (lpm),Bypass flow (lpm),Sample temperature (°C),Ambient temperature (°C),ASC tube jacket temperature (°C),LED temperature (°C),Box temperature (°C),Sample RH (%),Span deviation,Mass concentration (μg/m³),Mass concentration (μg/m³),Mass concentration (μg/m³)
DateTimeUTC,F1_M11,P_M11,Q1_M11,Q2_M11,T1_M11,T2_M11,T3_M11,T4_M11,T5_M11,U1_M11,ZSPAN_M11,X2_M11,X0_M11,X1_M11
2022-11-20 17:00:00,,0829.7,5.00,0.00,23.4,22.3,00.0,32.2,25.2,08.9,0000.0,0005.79,0011.78,0005.41
2022-11-20 17:01:00,,0829.7,5.00,0.00,23.4,22.3,00.0,32.2,25.2,08.8,0000.0,0005.80,0011.58,0005.42
2022-11-20 17:02:00,,0829.7,5.02,0.00,23.4,22.3,00.0,32.2,25.2,08.8,0000.0,0005.82,0011.20,0005.46
2022-11-20 17:03:00,,0829.7,4.99,0.00,23.4,22.3,00.0,32.2,25.2,08.9,0000.0,0005.90,0011.35,0005.52
2022-11-20 17:04:00,,0829.7,5.00,0.00,23.4,22.3,00.0,32.2,25.2,09.0,0000.0,0005.92,0011.21,0005.54
2022-11-20 17:05:00,,0829.9,4.99,0.00,23.4,22.3,00.0,32.2,25.2,08.9,0000.0,0005.91,0011.14,0005.54
2022-11-20 17:06:00,,0829.8,5.00,0.00,23.4,22.3,00.0,32.2,25.2,08.9,0000.0,0005.88,0010.25,0005.54
2022-11-20 17:07:00,,0829.9,4.98,0.00,23.5,22.4,00.0,32.2,25.3,08.9,0000.0,0005.90,0009.95,0005.55
2022-11-20 17:08:00,,0829.8,5.01,0.00,23.5,22.4,00.0,32.3,25.3,08.9,0000.0,0005.90,0009.37,0005.55
2022-11-20 17:09:00,,0829.9,4.98,0.00,23.5,22.4,00.0,32.3,25.3,08.9,0000.0,0005.91,0009.68,0005.54
2022-11-20 17:10:00,,0830.0,5.01,0.00,23.5,22.4,00.0,32.3,25.3,09.1,0000.0,0005.90,0010.06,0005.53
2022-11-20 17:11:00,,0829.8,5.00,0.00,23.5,22.4,00.0,32.3,25.3,09.0,0000.0,0005.87,0010.14,0005.50
2022-11-20 17:12:00,,0829.9,4.99,0.00,23.5,22.4,00.0,32.3,25.3,09.2,0000.0,0005.85,0010.33,0005.46
2022-11-20 17:13:00,,0829.9,5.02,0.00,23.5,22.4,00.0,32.3,25.3,09.1,0000.0,0005.84,0010.29,0005.42
2022-11-20 17:14:00,,0829.6,4.99,0.00,23.5,22.4,00.0,32.3,25.3,09.1,0000.0,0005.79,0010.16,0005.39
2022-11-20 17:15:00,,0829.6,4.98,0.00,23.5,22.4,00.0,32.3,25.4,09.0,0000.0,0005.76,0010.13,0005.36
2022-11-20 17:16:00,,0829.6,5.02,0.00,23.6,22.4,00.0,32.3,25.3,09.1,0000.0,0005.74,0010.61,0005.34
2022-11-20 17:17:00,,0829.6,4.98,0.00,23.6,22.4,00.0,32.4,25.4,09.3,0000.0,0005.73,0010.81,0005.33
2022-11-20 17:18:00,,0829.6,5.02,0.00,23.6,22.4,00.0,32.4,25.4,09.1,0000.0,0005.72,0010.87,0005.32
2022-11-20 17:19:00,,0829.6,4.99,0.00,23.6,22.5,00.0,32.4,25.4,09.1,0000.0,0005.71,0011.31,0005.32
2022-11-20 17:20:00,,0829.6,5.00,0.00,23.6,22.5,00.0,32.4,25.4,09.0,0000.0,0005.70,0011.08,0005.31
2022-11-20 17:21:00,,0829.8,5.00,0.00,23.6,22.5,00.0,32.4,25.4,09.2,0000.0,0005.76,0010.87,0005.32
2022-11-20 17:22:00,,0829.7,4.99,0.00,23.6,22.5,00.0,32.4,25.4,09.2,0000.0,0005.80,0010.87,0005.34
2022-11-20 17:23:00,,0829.7,5.00,0.00,23.6,22.5,00.0,32.4,25.5,09.1,0000.0,0005.82,0010.71,0005.36
2022-11-20 17:24:00,,0829.7,5.01,0.00,23.6,22.5,00.0,32.4,25.4,09.1,0000.0,0005.84,0010.75,0005.39
2022-11-20 17:25:00,,0829.6,4.99,0.00,23.6,22.5,00.0,32.4,25.4,09.1,0000.0,0005.87,0010.84,0005.43
2022-11-20 17:26:00,,0829.6,5.00,0.00,23.6,22.5,00.0,32.5,25.4,09.2,0000.0,0005.90,0010.90,0005.45
2022-11-20 17:27:00,,0829.7,5.02,0.00,23.6,22.5,00.0,32.5,25.5,09.0,0000.0,0005.92,0010.38,0005.48
2022-11-20 17:28:00,,0829.7,4.98,0.00,23.7,22.5,00.0,32.5,25.5,09.1,0000.0,0005.95,0010.29,0005.50
2022-11-20 17:29:00,,0829.7,4.99,0.00,23.7,22.5,00.0,32.5,25.5,08.5,0000.0,0005.94,0010.18,0005.50
2022-11-20 17:30:00,,0829.8,5.01,0.00,23.7,22.5,00.0,32.5,25.4,08.3,0000.0,0005.91,0009.67,0005.47
2022-11-20 17:31:00,,0829.6,4.99,0.00,23.7,22.5,00.0,32.5,25.5,08.4,0000.0,0005.85,0009.42,0005.42
2022-11-20 17:32:00,,0829.7,4.99,0.00,23.7,22.4,00.0,32.5,25.4,08.6,0000.0,0005.76,0009.16,0005.38
2022-11-20 17:33:00,,0829.8,5.01,0.00,23.7,22.4,00.0,32.5,25.4,08.7,0000.0,0005.66,0008.96,0005.32
2022-11-20 17:34:00,,0829.8,5.00,0.00,23.7,22.4,00.0,32.5,25.4,09.0,0000.0,0005.61,0009.14,0005.26
2022-11-20 17:35:00,,0829.6,4.99,0.00,23.7,22.4,00.0,32.5,25.4,08.3,0000.0,0005.50,0008.99,0005.17
2022-11-20 17:36:00,,0829.6,5.02,0.00,23.7,22.4,00.0,32.5,25.4,08.0,0000.0,0005.40,0008.85,0005.05
2022-11-20 17:37:00,,0829.6,4.99,0.00,23.7,22.4,00.0,32.6,25.4,07.9,0000.0,0005.25,0008.63,0004.91
2022-11-20 17:38:00,,0829.5,4.99,0.00,23.7,22.4,00.0,32.6,25.4,08.1,0000.0,0005.12,0008.75,0004.79
2022-11-20 17:39:00,,0829.5,5.01,0.00,23.7,22.4,00.0,32.6,25.4,08.5,0000.0,0005.01,0008.65,0004.68
2022-11-20 17:40:00,,0829.5,5.00,0.00,23.7,22.4,00.0,32.6,25.4,08.3,0000.0,0004.93,0008.71,0004.60
2022-11-20 17:41:00,,0829.5,4.99,0.00,23.7,22.4,00.0,32.6,25.4,08.0,0000.0,0004.87,0008.65,0004.54
2022-11-20 17:42:00,,0829.6,5.01,0.00,23.7,22.4,00.0,32.6,25.4,08.0,0000.0,0004.79,0008.57,0004.46
2022-11-20 17:43:00,,0829.6,5.02,0.00,23.7,22.4,00.0,32.6,25.4,07.6,0000.0,0004.69,0008.44,0004.36
2022-11-20 17:44:00,,0829.6,4.99,0.00,23.7,22.5,00.0,32.6,25.4,07.5,0000.0,0004.58,0008.25,0004.27
2022-11-20 17:45:00,,0829.6,5.00,0.00,23.7,22.5,00.0,32.6,25.5,07.3,0000.0,0004.46,0007.86,0004.17
2022-11-20 17:46:00,,0829.6,5.00,0.00,23.7,22.5,00.0,32.6,25.5,07.3,0000.0,0004.36,0007.70,0004.09
2022-11-20 17:47:00,,0829.6,4.99,0.00,23.7,22.5,00.0,32.6,25.5,07.5,0000.0,0004.27,0007.73,0004.02
2022-11-20 17:48:00,,0829.6,5.01,0.00,23.7,22.5,00.0,32.6,25.5,07.6,0000.0,0004.22,0007.62,0003.97
2022-11-20 17:49:00,,0829.5,5.01,0.00,23.7,22.5,00.0,32.6,25.5,07.2,0000.0,0004.16,0007.17,0003.93
2022-11-20 17:50:00,,0829.4,4.98,0.00,23.7,22.6,00.0,32.6,25.5,07.1,0000.0,0004.10,0006.91,0003.87
2022-11-20 17:51:00,,0829.5,5.00,0.00,23.8,22.6,00.0,32.6,25.5,07.1,0000.0,0004.02,0006.56,0003.81
2022-11-20 17:52:00,,0829.5,5.02,0.00,23.8,22.6,00.0,32.6,25.5,07.1,0000.0,0003.94,0006.80,0003.75
2022-11-20 17:53:00,,0829.5,4.98,0.00,23.8,22.6,00.0,32.6,25.5,07.2,0000.0,0003.89,0007.56,0003.70
2022-11-20 17:54:00,,0829.5,5.01,0.00,23.8,22.6,00.0,32.6,25.5,07.3,0000.0,0003.87,0007.54,0003.67
2022-11-20 17:55:00,,0829.5,5.00,0.00,23.8,22.6,00.0,32.7,25.5,07.4,0000.0,0003.88,0007.61,0003.67
2022-11-20 17:56:00,,0829.5,4.99,0.00,23.8,22.6,00.0,32.7,25.5,08.1,0000.0,0003.91,0007.67,0003.68
2022-11-20 17:57:00,,0829.5,5.01,0.00,23.8,22.6,00.0,32.7,25.5,08.0,0000.0,0003.97,0008.03,0003.73
2022-11-20 17:58:00,,0829.5,4.99,0.00,23.8,22.6,00.0,32.7,25.5,08.0,0000.0,0004.01,0008.21,0003.76
2022-11-20 17:59:00,,0829.5,5.00,0.00,23.8,22.6,00.0,32.7,25.5,07.9,0000.0,0004.05,0008.34,0003.78
